Regional Weather Roundup
Issued by NWS

Home | Current Version | Previous Version | Text Only | Print | Product List | Glossary Off
Versions: 1 2 3 4 5 6 7 8 9 10 11 12 13 14 15 16 17 18 19 20 21 22 23 24 25 26 27 28 29 30 31 32 33 34 35 36 37 38 39 40 41 42 43 44 45 46 47 48 49 50

000
ASUS45 KPSR 301900
RWRAZ

ARIZONA HOURLY REGIONAL WEATHER ROUNDUP
NATIONAL WEATHER SERVICE PHOENIX AZ
1200 PM MST THU JUL 30 2015

NOTE: FAIR INDICATES FEW OR NO CLOUDS BELOW 12,000 FEET WITH NO
SIGNIFICANT WEATHER AND/OR OBSTRUCTIONS TO VISIBILITY.

AZZ001>003-036-302000-
NORTHWEST ARIZONA

CITY           SKY/WX    TMP DP  RH WIND       PRES   REMARKS
KINGMAN        MOSUNNY   94  53  25 VRB6      30.16F
$$

AZZ004>008-015-016-018-302000-
NORTH CENTRAL ARIZONA

CITY           SKY/WX    TMP DP  RH WIND       PRES   REMARKS
GRAND CANYON   CLOUDY    78  49  35 MISG      30.42F
WILLIAMS       CLOUDY    75  48  38 NE7G13    30.48S
PRESCOTT       CLOUDY    79  54  41 VRB6      30.30F
FLAGSTAFF      NOT AVBL
PAYSON         PTSUNNY   79  59  50 CALM      30.32F HAZE
PAGE           PTSUNNY   88  54  31 E5        30.25F
$$

AZZ009>014-017-302000-
NORTHEAST ARIZONA

CITY           SKY/WX    TMP DP  RH WIND       PRES   REMARKS
WINSLOW        NOT AVBL
SAINT JOHNS    PTSUNNY   77  57  50 VRB3      30.35F
SHOW LOW       PTSUNNY   70  55  60 W3        30.41F
$$

AZZ023-302000-
GREATER PHOENIX AREA

CITY           SKY/WX    TMP DP  RH WIND       PRES   REMARKS
PHOENIX        MOSUNNY   98  60  28 VRB6      29.99F
GLENDALE       PTSUNNY   99  61  28 N6        30.01F
DEER VALLEY    SUNNY     98  58  26 NE8       30.01F
SCOTTSDALE     SUNNY     96  58  27 VRB3      30.03F
MESA-FALCON    MOSUNNY   99  59  26 VRB6      30.01F
MESA-GATEWAY   MOSUNNY   95  59  30 SW8       30.04F
CHANDLER       MOSUNNY   97  61  30 VRB3      30.01F
$$

AZZ027-028-302000-
SOUTHWEST MARICOPA COUNTY AND PINAL COUNTY

CITY           SKY/WX    TMP DP  RH WIND       PRES   REMARKS
CASA GRANDE    SUNNY     97  61  30 CALM      30.01F
$$

AZZ503-504-507>509-302000-
SOUTHEAST ARIZONA

CITY           SKY/WX    TMP DP  RH WIND       PRES   REMARKS
TUCSON         SUNNY     93  60  33 CALM      30.13F
RYAN FIELD     SUNNY     93  63  36 N5        30.11F
NOGALES        SUNNY     88  62  41 VRB5      30.20F
SAFFORD        PTSUNNY   90  61  37 SE12      30.17F
$$

AZZ020-021-025-026-031-302000-
SOUTHWEST ARIZONA

CITY           SKY/WX    TMP DP  RH WIND       PRES   REMARKS
YUMA           MOSUNNY  103  64  28 CALM      29.92F HX 106
$$

CAZ031-033-041-043-047-048-061-302000-
SOUTHERN CALIFORNIA

CITY           SKY/WX    TMP DP  RH WIND       PRES   REMARKS
DOWNTOWN L.A.  MOSUNNY   79  66  64 CALM      30.00F
L.A. AIRPORT   MOSUNNY   75  65  70 W13       30.02S
SAN DIEGO      MOSUNNY   77  65  66 W5        30.03R
BURBANK        MOSUNNY   83  64  52 S6        30.01F
ONTARIO        MOSUNNY   90  64  42 W9        30.00F
RIVERSIDE      PTSUNNY   91  65  41 VRB7      29.99F
PALM SPRINGS   MOSUNNY  102  67  31 VRB5      29.95F HX 107
EL CENTRO NAS  MOSUNNY  103  62  26 VRB3      29.92F HX 105
IMPERIAL       SUNNY    104  62  25 NE6       29.90F HX 106
BLYTHE         SUNNY    102  63  27 E7        29.93F HX 104
$$

NVZ020-UTZ003-302000-
SOUTHERN NEVADA-UTAH

CITY           SKY/WX    TMP DP  RH WIND       PRES   REMARKS
LAS VEGAS      NOT AVBL
SALT LAKE CITY MOSUNNY   88  33  14 N10       30.28F
$$

NMZ009-TXZ055-302000-
NEW MEXICO-WEST TEXAS

CITY           SKY/WX    TMP DP  RH WIND       PRES   REMARKS
ALBUQUERQUE    PTSUNNY   77  57  50 NW7       30.37F
EL PASO        MOSUNNY   81  61  50 W6        30.24F
$$


........................KEY........................
SKY/WX - SKY CONDITION/WEATHER
TMP    - TEMPERATURE IN FAHRENHEIT
DP     - DEW POINT IN FAHRENHEIT
RH     - RELATIVE HUMIDITY IN PERCENT
WIND   - DIRECTION AND SPEED IN MILES PER HOUR (MPH)
VRB    - VARIABLE WIND DIRECTION
PRES   - MEAN SEA LEVEL PRESSURE IN INCHES OF MERCURY
         F - FALLING PRESSURE   R - RISING PRESSURE
         S - STEADY PRESSURE
VSB    - VISIBILITY IN MILES
HX     - HEAT INDEX IN FAHRENHEIT
WCI    - WIND CHILL INDEX IN FAHRENHEIT
TC     - TEMPERATURE IN CELSIUS WHICH IS ALSO KNOWN AS
         TEMPERATURE IN CENTIGRADE
AFB    - AIR FORCE BASE
         LUKE AFB IS LUKE AIR FORCE BASE
         DAVIS-MONTHAN IS DAVIS-MONTHAN AIR FORCE BASE
NAS    - NAVAL AIR STATION
         EL CENTRO NAS IS EL CENTRO NAVAL AIR STATION
N/A    - NOT AVAILABLE



USA.gov is the U.S. government's official web portal to all federal, state and local government web resources and services.